Tracking 19199 objects as of 25-Jun-2018
HD Live streaming from Space Station
objects crossing your sky now

ALTAIR PATHFINDER

Track ALTAIR PATHFINDER now!
10-day predictions


NORAD ID: 42711
Int'l Code: 1998-067LS
Perigee: 379.0 km
Apogee: 383.9 km
Inclination: 51.6 °
Period: 92.0 minutes
Semi major axis: 6752 km
RCS: Unknown
Launch date: November 20, 1998
Source: United States (US)
Launch site: TYURATAM MISSILE AND SPACE COMPLEX (TTMTR)
aabbcc
Your satellite tracking list
Your tracking list is empty




NASA's NSSDC Master Catalog

Two Line Element Set (TLE):
1 42711U 98067LS  18176.04902866  .00016080  00000-0  16818-3 0  9995
2 42711  51.6366 323.7714 0003620 208.2392 151.8407 15.64617648 62707
Source of the keplerian elements: AFSPC